TimeEDT,TemperatureF,Dew PointF,Humidity,Sea Level PressureIn,VisibilityMPH,Wind Direction,Wind SpeedMPH,Gust SpeedMPH,PrecipitationIn,Events,Conditions,WindDirDegrees,DateUTC
12:01 AM,60.8,60.8,100,30.04,1.0,Calm,Calm,-,N/A,,Mist,0,2012-10-05 04:01:00
12:51 AM,61.0,59.9,96,30.04,1.0,Calm,Calm,-,N/A,,Mostly Cloudy,0,2012-10-05 04:51:00
12:59 AM,60.8,60.8,100,30.04,0.8,Calm,Calm,-,N/A,,Mostly Cloudy,0,2012-10-05 04:59:00
1:07 AM,60.8,60.8,100,30.04,0.5,Calm,Calm,-,N/A,Fog,Fog,0,2012-10-05 05:07:00
1:43 AM,60.8,59.0,94,30.03,0.8,Calm,Calm,-,N/A,,Overcast,0,2012-10-05 05:43:00
1:51 AM,59.9,59.0,97,30.04,0.5,Calm,Calm,-,N/A,Fog,Fog,0,2012-10-05 05:51:00
2:02 AM,60.8,59.0,94,30.03,0.2,Calm,Calm,-,N/A,Fog,Fog,0,2012-10-05 06:02:00
2:51 AM,59.9,59.0,97,30.02,0.2,NW,3.5,-,N/A,Fog,Fog,310,2012-10-05 06:51:00
3:07 AM,60.8,59.0,94,30.02,0.2,West,3.5,-,N/A,Fog,Fog,280,2012-10-05 07:07:00
4:11 AM,57.2,57.2,100,30.02,0.8,Calm,Calm,-,N/A,,Mostly Cloudy,0,2012-10-05 08:11:00
4:26 AM,57.2,57.2,100,30.01,0.5,Calm,Calm,-,N/A,Fog,Fog,0,2012-10-05 08:26:00
4:51 AM,57.9,56.8,96,30.02,0.5,Calm,Calm,-,N/A,Fog,Fog,0,2012-10-05 08:51:00
5:10 AM,57.2,57.2,100,30.02,0.2,Calm,Calm,-,N/A,Fog,Fog,0,2012-10-05 09:10:00
5:20 AM,57.2,57.2,100,30.02,0.5,Calm,Calm,-,N/A,Fog,Fog,0,2012-10-05 09:20:00
5:30 AM,57.2,57.2,100,30.02,0.2,Calm,Calm,-,N/A,Fog,Fog,0,2012-10-05 09:30:00
5:51 AM,56.8,55.9,97,30.03,0.5,Calm,Calm,-,N/A,Fog,Fog,0,2012-10-05 09:51:00
6:02 AM,57.2,55.4,94,30.02,0.2,Calm,Calm,-,N/A,Fog,Fog,0,2012-10-05 10:02:00
6:23 AM,57.2,55.4,94,30.02,0.5,Calm,Calm,-,N/A,Fog,Fog,0,2012-10-05 10:23:00
6:41 AM,57.2,55.4,94,30.02,0.2,Calm,Calm,-,N/A,Fog,Fog,0,2012-10-05 10:41:00
6:51 AM,56.8,55.9,97,30.04,0.2,Calm,Calm,-,N/A,Fog,Fog,0,2012-10-05 10:51:00
7:51 AM,55.9,55.9,100,30.04,0.2,Calm,Calm,-,N/A,Fog,Fog,0,2012-10-05 11:51:00
8:34 AM,57.2,55.4,94,30.02,0.2,Calm,Calm,-,N/A,Fog,Fog,0,2012-10-05 12:34:00
8:51 AM,56.8,56.8,100,30.04,0.8,Calm,Calm,-,N/A,,Mostly Cloudy,0,2012-10-05 12:51:00
8:56 AM,57.2,57.2,100,30.03,1.2,Calm,Calm,-,N/A,,Mostly Cloudy,0,2012-10-05 12:56:00
8:59 AM,57.2,57.2,100,30.03,2.5,Calm,Calm,-,N/A,,Mostly Cloudy,0,2012-10-05 12:59:00
9:07 AM,57.2,57.2,100,30.03,5.0,Calm,Calm,-,N/A,,Mostly Cloudy,0,2012-10-05 13:07:00
9:16 AM,57.2,57.2,100,30.03,2.5,NW,3.5,-,N/A,,Scattered Clouds,320,2012-10-05 13:16:00
9:28 AM,59.0,57.2,94,30.03,4.0,North,3.5,-,N/A,,Partly Cloudy,350,2012-10-05 13:28:00
9:51 AM,61.0,59.9,96,30.03,7.0,Calm,Calm,-,N/A,,Clear,0,2012-10-05 13:51:00
11:51 AM,70.9,56.8,61,30.01,10.0,NW,5.8,-,N/A,,Clear,320,2012-10-05 15:51:00
1:51 PM,75.9,54.0,46,29.97,10.0,Variable,3.5,-,N/A,,Clear,0,2012-10-05 17:51:00
3:51 PM,77.0,52.0,42,29.93,10.0,Variable,4.6,-,N/A,,Clear,0,2012-10-05 19:51:00
4:51 PM,75.9,54.9,48,29.93,10.0,South,3.5,-,N/A,,Clear,180,2012-10-05 20:51:00
5:51 PM,70.0,59.9,70,29.93,10.0,Calm,Calm,-,N/A,,Clear,0,2012-10-05 21:51:00
6:51 PM,64.9,59.9,84,29.94,10.0,Calm,Calm,-,N/A,,Clear,0,2012-10-05 22:51:00
7:51 PM,63.0,59.0,87,29.94,10.0,Calm,Calm,-,N/A,,Clear,0,2012-10-05 23:51:00
8:51 PM,61.9,57.9,87,29.94,10.0,Calm,Calm,-,N/A,,Clear,0,2012-10-06 00:51:00
9:51 PM,61.0,57.9,90,29.94,10.0,Calm,Calm,-,N/A,,Clear,0,2012-10-06 01:51:00
10:51 PM,61.0,57.9,90,29.93,10.0,ESE,3.5,-,N/A,,Clear,110,2012-10-06 02:51:00
11:51 PM,59.0,55.9,90,29.92,10.0,Calm,Calm,-,N/A,,Clear,0,2012-10-06 03:51:00